Location: Melizzano
(41.1500°N, 14.5000°E)
Time: 19:34:10
(UTC+00:00)

Cosmos 1666 Rocket - Pass Details

Date: 11 May 2021
Orbit: 603 x 634 km, 82.5° (Epoch: 21 June)

Event Time Altitude Azimuth Distance (km) Brightness Sun altitude
Rises 19:25:31 0° 355° (N) 2,903 7.7 -13.0°
Reaches altitude 10° 19:27:47 10° 359° (N) 1,987 6.7 -13.3°
Maximum altitude 19:32:09 63° 81° (E) 687 3.6 -13.9°
Enters shadow 19:35:02 20° 158° (SSE) 1,409 4.9 -14.3°
